Location: Gajan
(43.0218°N, 1.1244°E)
Time: 03:35:42
(UTC+00:00)

Cosmos 2098 Rocket - Pass Details

Date: 22 April 2021
Orbit: 367 x 1178 km, 82.9° (Epoch: 15 May)

Event Time Altitude Azimuth Distance (km) Brightness Sun altitude
Rises 19:12:32 0° 352° (N) 3,954 7.6 -5.3°
Reaches altitude 10° 19:15:08 10° 354° (N) 3,046 7.0 -5.8°
Maximum altitude 19:22:29 81° 82° (E) 1,196 4.4 -7.0°
Drops below altitude 10° 19:29:46 10° 170° (S) 3,017 6.2 -8.2°
Sets 19:32:20 0° 171° (S) 3,914 6.8 -8.6°
